Find Starlink 4667

NORAD ID: 53707 Int'l Des: 2022-107 Owner: SPXS Country: US Constellation: starlink operational
LEOCIRCULAR

現在のビュー

3D地球を読み込み中...

About Starlink 4667

Starlink 4667 (NORAD 53707) is a starlink constellation satellite (v1.5) launched Sep 5, 2022 by SPXS of US. It operates in LEO, CIRCULAR orbit with a mass of 305.00 kg.

Starlink 4667について

説明を読み込み中...

次回通過

Passes for default location (London). Set your location on the main map for personalized predictions.

高度履歴

Loading altitude history...

軌道要素

1 53707U 22107H 26171.29203660 -.00000493 00000-0 -12875-4 0 9994
2 53707 53.1600 128.4223 0001261 83.8834 276.2302 15.08836618210556
Epoch: Jun 20, 2026 • Age: 25 hours

現在のステータス

高度 559.1 km
速度 7.58 km/s
衛星直下点 -53.11°S, 10.13°E
打ち上げ日 Sep 5, 2022
運用期間 3.7 years
タイプ internet

技術仕様

分類 Payload
質量 305.00 kg
乾燥質量 290.00 kg
総質量 305.00 kg
長さ 0.20 m
直径 2.80 m
スパン 9.00 m
形状 Box + pan
製造者 SPXS
バスタイプ Starlink
フェーズステータス In Orbit
所有者/国 SPXS/US

Most Searched